Time,TemperatureF,DewpointF,PressureIn,WindDirection,WindDirectionDegrees,WindSpeedMPH,WindSpeedGustMPH,Humidity,HourlyPrecipIn,Conditions,Clouds,dailyrainin,SoftwareType,DateUTC
2013-03-28 00:02:00,31.6,21.0,30.48,NNW,337,0.0,6.0,65,0.00,,,0.00,weatherlink.com 1.10,2013-03-28 04:02:00,
2013-03-28 00:17:00,31.1,21.0,30.47,WNW,293,1.0,3.0,67,0.00,,,0.00,weatherlink.com 1.10,2013-03-28 04:17:00,
2013-03-28 00:32:00,30.8,21.0,30.48,ENE,60,1.0,5.0,68,0.00,,,0.00,weatherlink.com 1.10,2013-03-28 04:32:00,
2013-03-28 00:47:00,30.6,22.0,30.48,West,271,1.0,3.0,69,0.00,,,0.00,weatherlink.com 1.10,2013-03-28 04:47:00,
2013-03-28 01:02:00,30.4,21.0,30.47,SE,136,0.0,4.0,69,0.00,,,0.00,weatherlink.com 1.10,2013-03-28 05:02:00,
2013-03-28 01:17:00,29.7,21.0,30.47,NE,54,0.0,0.0,71,0.00,,,0.00,weatherlink.com 1.10,2013-03-28 05:17:00,
2013-03-28 01:32:00,29.8,21.0,30.47,WNW,302,1.0,3.0,71,0.00,,,0.00,weatherlink.com 1.10,2013-03-28 05:32:00,
2013-03-28 01:47:00,29.3,21.0,30.47,WSW,240,0.0,1.0,72,0.00,,,0.00,weatherlink.com 1.10,2013-03-28 05:47:00,
2013-03-28 02:02:00,29.3,21.0,30.47,East,81,2.0,3.0,72,0.00,,,0.00,weatherlink.com 1.10,2013-03-28 06:02:00,
2013-03-28 02:17:00,28.8,22.0,30.47,SSE,160,0.0,0.0,74,0.00,,,0.00,weatherlink.com 1.10,2013-03-28 06:17:00,
2013-03-28 02:32:00,28.1,21.0,30.47,SSW,210,0.0,0.0,75,0.00,,,0.00,weatherlink.com 1.10,2013-03-28 06:32:00,
2013-03-28 02:47:00,28.1,21.0,30.47,WNW,300,4.0,4.0,76,0.00,,,0.00,weatherlink.com 1.10,2013-03-28 06:47:00,
2013-03-28 03:17:00,28.2,21.0,30.47,West,277,0.0,2.0,75,0.00,,,0.00,weatherlink.com 1.10,2013-03-28 07:17:00,
2013-03-28 03:32:00,28.3,21.0,30.47,WNW,288,0.0,4.0,74,0.00,,,0.00,weatherlink.com 1.10,2013-03-28 07:32:00,
2013-03-28 03:47:00,28.8,21.0,30.47,West,271,2.0,3.0,73,0.00,,,0.00,weatherlink.com 1.10,2013-03-28 07:47:00,
2013-03-28 04:02:00,28.5,21.0,30.46,SSE,166,1.0,2.0,74,0.00,,,0.00,weatherlink.com 1.10,2013-03-28 08:02:00,
2013-03-28 04:17:00,28.0,21.0,30.47,SSE,166,0.0,2.0,75,0.00,,,0.00,weatherlink.com 1.10,2013-03-28 08:17:00,
2013-03-28 04:32:00,27.8,21.0,30.47,WSW,240,0.0,2.0,75,0.00,,,0.00,weatherlink.com 1.10,2013-03-28 08:32:00,
2013-03-28 04:47:00,27.3,21.0,30.47,SW,224,1.0,1.0,76,0.00,,,0.00,weatherlink.com 1.10,2013-03-28 08:47:00,
2013-03-28 05:02:00,27.5,21.0,30.47,West,280,0.0,2.0,76,0.00,,,0.00,weatherlink.com 1.10,2013-03-28 09:02:00,
2013-03-28 05:17:00,27.3,21.0,30.46,WSW,252,0.0,1.0,76,0.00,,,0.00,weatherlink.com 1.10,2013-03-28 09:17:00,
2013-03-28 05:32:00,26.9,21.0,30.47,SSE,153,0.0,2.0,77,0.00,,,0.00,weatherlink.com 1.10,2013-03-28 09:32:00,
2013-03-28 05:47:00,27.3,20.0,30.48,SSE,148,1.0,4.0,75,0.00,,,0.00,weatherlink.com 1.10,2013-03-28 09:47:00,
2013-03-28 06:02:00,27.5,20.0,30.48,WNW,285,0.0,2.0,74,0.00,,,0.00,weatherlink.com 1.10,2013-03-28 10:02:00,
2013-03-28 06:17:00,27.4,20.0,30.48,SSW,212,1.0,2.0,74,0.00,,,0.00,weatherlink.com 1.10,2013-03-28 10:17:00,
2013-03-28 06:32:00,27.5,20.0,30.48,SE,144,2.0,2.0,73,0.00,,,0.00,weatherlink.com 1.10,2013-03-28 10:32:00,
2013-03-28 06:47:00,27.1,20.0,30.48,SSE,164,1.0,2.0,76,0.00,,,0.00,weatherlink.com 1.10,2013-03-28 10:47:00,
2013-03-28 07:03:00,27.2,20.0,30.49,SSW,195,0.0,3.0,75,0.00,,,0.00,weatherlink.com 1.10,2013-03-28 11:03:00,
2013-03-28 07:18:00,27.1,20.0,30.49,South,169,0.0,3.0,73,0.00,,,0.00,weatherlink.com 1.10,2013-03-28 11:18:00,
2013-03-28 07:33:00,27.4,20.0,30.49,South,184,1.0,3.0,74,0.00,,,0.00,weatherlink.com 1.10,2013-03-28 11:33:00,
2013-03-28 07:48:00,27.6,19.0,30.50,SSW,194,0.0,2.0,71,0.00,,,0.00,weatherlink.com 1.10,2013-03-28 11:48:00,
2013-03-28 08:03:00,27.8,20.0,30.51,SSE,168,1.0,2.0,73,0.00,,,0.00,weatherlink.com 1.10,2013-03-28 12:03:00,
2013-03-28 08:18:00,28.0,20.0,30.51,South,188,1.0,3.0,72,0.00,,,0.00,weatherlink.com 1.10,2013-03-28 12:18:00,
2013-03-28 08:33:00,28.7,20.0,30.52,SSE,164,0.0,2.0,71,0.00,,,0.00,weatherlink.com 1.10,2013-03-28 12:33:00,
2013-03-28 08:48:00,29.1,21.0,30.52,SSE,164,1.0,2.0,72,0.00,,,0.00,weatherlink.com 1.10,2013-03-28 12:48:00,
2013-03-28 09:03:00,30.0,20.0,30.52,ESE,114,0.0,2.0,67,0.00,,,0.00,weatherlink.com 1.10,2013-03-28 13:03:00,
2013-03-28 09:19:00,30.8,21.0,30.53,NE,45,3.0,5.0,67,0.00,,,0.00,weatherlink.com 1.10,2013-03-28 13:19:00,
2013-03-28 09:33:00,31.9,21.0,30.53,NE,47,3.0,4.0,64,0.00,,,0.00,weatherlink.com 1.10,2013-03-28 13:33:00,
2013-03-28 09:48:00,32.5,20.0,30.53,North,353,3.0,8.0,60,0.00,,,0.00,weatherlink.com 1.10,2013-03-28 13:48:00,
2013-03-28 10:03:00,33.7,21.0,30.53,ENE,72,2.0,8.0,59,0.00,,,0.00,weatherlink.com 1.10,2013-03-28 14:03:00,
2013-03-28 10:18:00,34.5,19.0,30.53,East,94,2.0,8.0,53,0.00,,,0.00,weatherlink.com 1.10,2013-03-28 14:18:00,
2013-03-28 10:33:00,35.4,20.0,30.53,SW,217,4.0,10.0,53,0.00,,,0.00,weatherlink.com 1.10,2013-03-28 14:33:00,
2013-03-28 10:48:00,36.7,20.0,30.53,WNW,290,2.0,7.0,52,0.00,,,0.00,weatherlink.com 1.10,2013-03-28 14:48:00,
2013-03-28 11:03:00,37.5,19.0,30.52,NNE,25,4.0,7.0,47,0.00,,,0.00,weatherlink.com 1.10,2013-03-28 15:03:00,
2013-03-28 11:18:00,38.7,17.0,30.53,NNW,332,2.0,7.0,42,0.00,,,0.00,weatherlink.com 1.10,2013-03-28 15:18:00,
2013-03-28 11:33:00,39.6,17.0,30.52,East,91,1.0,8.0,40,0.00,,,0.00,weatherlink.com 1.10,2013-03-28 15:33:00,
2013-03-28 11:48:00,40.9,16.0,30.52,NW,304,5.0,8.0,37,0.00,,,0.00,weatherlink.com 1.10,2013-03-28 15:48:00,
2013-03-28 12:03:00,42.4,17.0,30.52,North,11,1.0,10.0,36,0.00,,,0.00,weatherlink.com 1.10,2013-03-28 16:03:00,
2013-03-28 12:18:00,42.5,16.0,30.51,SE,124,2.0,11.0,35,0.00,,,0.00,weatherlink.com 1.10,2013-03-28 16:18:00,
2013-03-28 12:34:00,44.1,17.0,30.51,NW,325,3.0,7.0,33,0.00,,,0.00,weatherlink.com 1.10,2013-03-28 16:34:00,
2013-03-28 12:49:00,44.5,17.0,30.50,NW,308,1.0,7.0,33,0.00,,,0.00,weatherlink.com 1.10,2013-03-28 16:49:00,
2013-03-28 13:04:00,46.1,19.0,30.50,NNW,329,4.0,6.0,34,0.00,,,0.00,weatherlink.com 1.10,2013-03-28 17:04:00,
2013-03-28 13:19:00,46.7,18.0,30.49,NNW,336,2.0,7.0,32,0.00,,,0.00,weatherlink.com 1.10,2013-03-28 17:19:00,
2013-03-28 13:34:00,46.1,15.0,30.49,NNW,332,0.0,8.0,29,0.00,,,0.00,weatherlink.com 1.10,2013-03-28 17:34:00,
2013-03-28 13:49:00,48.3,17.0,30.48,NNW,343,3.0,5.0,29,0.00,,,0.00,weatherlink.com 1.10,2013-03-28 17:49:00,
2013-03-28 14:04:00,47.7,13.0,30.48,NW,322,4.0,8.0,25,0.00,,,0.00,weatherlink.com 1.10,2013-03-28 18:04:00,
2013-03-28 14:19:00,47.7,12.0,30.48,NW,305,8.0,12.0,24,0.00,,,0.00,weatherlink.com 1.10,2013-03-28 18:19:00,
2013-03-28 14:34:00,48.0,11.0,30.47,WNW,291,7.0,9.0,22,0.00,,,0.00,weatherlink.com 1.10,2013-03-28 18:34:00,
2013-03-28 14:49:00,48.5,11.0,30.47,WNW,288,7.0,13.0,22,0.00,,,0.00,weatherlink.com 1.10,2013-03-28 18:49:00,
2013-03-28 15:04:00,48.4,8.0,30.46,NNW,335,6.0,11.0,19,0.00,,,0.00,weatherlink.com 1.10,2013-03-28 19:04:00,
2013-03-28 15:19:00,48.5,11.0,30.45,SSW,211,3.0,11.0,22,0.00,,,0.00,weatherlink.com 1.10,2013-03-28 19:19:00,
2013-03-28 15:34:00,49.5,11.0,30.44,West,280,4.0,9.0,21,0.00,,,0.00,weatherlink.com 1.10,2013-03-28 19:34:00,
2013-03-28 15:49:00,49.9,9.0,30.44,NNW,336,6.0,9.0,19,0.00,,,0.00,weatherlink.com 1.10,2013-03-28 19:49:00,
2013-03-28 16:04:00,48.2,9.0,30.44,West,280,2.0,14.0,20,0.00,,,0.00,weatherlink.com 1.10,2013-03-28 20:04:00,
2013-03-28 16:19:00,48.1,11.0,30.43,WNW,296,2.0,10.0,22,0.00,,,0.00,weatherlink.com 1.10,2013-03-28 20:19:00,
2013-03-28 16:34:00,48.1,10.0,30.43,West,273,3.0,10.0,21,0.00,,,0.00,weatherlink.com 1.10,2013-03-28 20:34:00,
2013-03-28 16:49:00,48.3,11.0,30.42,NW,321,2.0,6.0,22,0.00,,,0.00,weatherlink.com 1.10,2013-03-28 20:49:00,
2013-03-28 17:04:00,48.1,11.0,30.43,WNW,297,9.0,11.0,22,0.00,,,0.00,weatherlink.com 1.10,2013-03-28 21:04:00,
2013-03-28 17:19:00,47.7,10.0,30.43,NW,314,4.0,9.0,22,0.00,,,0.00,weatherlink.com 1.10,2013-03-28 21:19:00,
2013-03-28 17:34:00,47.8,13.0,30.43,NW,316,3.0,5.0,25,0.00,,,0.00,weatherlink.com 1.10,2013-03-28 21:34:00,
2013-03-28 17:49:00,46.8,12.0,30.43,ENE,63,2.0,7.0,24,0.00,,,0.00,weatherlink.com 1.10,2013-03-28 21:49:00,
2013-03-28 18:04:00,46.3,11.0,30.44,North,9,1.0,7.0,24,0.00,,,0.00,weatherlink.com 1.10,2013-03-28 22:04:00,
2013-03-28 18:19:00,46.3,14.0,30.44,NE,36,2.0,7.0,27,0.00,,,0.00,weatherlink.com 1.10,2013-03-28 22:19:00,
2013-03-28 18:34:00,45.6,13.0,30.44,SW,233,2.0,8.0,27,0.00,,,0.00,weatherlink.com 1.10,2013-03-28 22:34:00,
2013-03-28 18:49:00,44.7,15.0,30.45,North,4,3.0,6.0,30,0.00,,,0.00,weatherlink.com 1.10,2013-03-28 22:49:00,
2013-03-28 19:04:00,44.1,14.0,30.45,NW,323,2.0,6.0,29,0.00,,,0.00,weatherlink.com 1.10,2013-03-28 23:04:00,
2013-03-28 19:19:00,43.1,15.0,30.46,East,84,2.0,5.0,32,0.00,,,0.00,weatherlink.com 1.10,2013-03-28 23:19:00,
2013-03-28 19:34:00,42.2,14.0,30.46,WNW,290,2.0,4.0,32,0.00,,,0.00,weatherlink.com 1.10,2013-03-28 23:34:00,
2013-03-28 19:49:00,41.1,15.0,30.46,South,172,1.0,3.0,35,0.00,,,0.00,weatherlink.com 1.10,2013-03-28 23:49:00,
2013-03-28 20:04:00,40.3,15.0,30.47,SSW,211,0.0,2.0,36,0.00,,,0.00,weatherlink.com 1.10,2013-03-29 00:04:00,
2013-03-28 20:19:00,39.2,17.0,30.48,SSE,162,2.0,3.0,41,0.00,,,0.00,weatherlink.com 1.10,2013-03-29 00:19:00,
2013-03-28 20:34:00,38.7,16.0,30.48,SSW,207,0.0,3.0,40,0.00,,,0.00,weatherlink.com 1.10,2013-03-29 00:34:00,
2013-03-28 20:49:00,38.3,19.0,30.48,South,177,1.0,4.0,45,0.00,,,0.00,weatherlink.com 1.10,2013-03-29 00:49:00,
2013-03-28 21:04:00,37.9,18.0,30.48,SSE,150,3.0,4.0,45,0.00,,,0.00,weatherlink.com 1.10,2013-03-29 01:04:00,
2013-03-28 21:19:00,37.6,19.0,30.48,SSE,165,3.0,4.0,48,0.00,,,0.00,weatherlink.com 1.10,2013-03-29 01:19:00,
2013-03-28 21:34:00,37.8,19.0,30.49,SSE,167,2.0,3.0,47,0.00,,,0.00,weatherlink.com 1.10,2013-03-29 01:34:00,
2013-03-28 21:49:00,38.4,20.0,30.49,SSE,166,2.0,3.0,47,0.00,,,0.00,weatherlink.com 1.10,2013-03-29 01:49:00,
2013-03-28 22:04:00,38.3,20.0,30.49,SSE,166,3.0,4.0,49,0.00,,,0.00,weatherlink.com 1.10,2013-03-29 02:04:00,
2013-03-28 22:19:00,37.7,20.0,30.50,SSE,159,2.0,3.0,49,0.00,,,0.00,weatherlink.com 1.10,2013-03-29 02:19:00,
2013-03-28 22:34:00,37.5,21.0,30.50,South,175,3.0,4.0,52,0.00,,,0.00,weatherlink.com 1.10,2013-03-29 02:34:00,
2013-03-28 22:49:00,37.1,20.0,30.50,SSE,163,2.0,5.0,50,0.00,,,0.00,weatherlink.com 1.10,2013-03-29 02:49:00,
2013-03-28 23:04:00,37.6,20.0,30.50,SSW,211,0.0,4.0,49,0.00,,,0.00,weatherlink.com 1.10,2013-03-29 03:04:00,
2013-03-28 23:19:00,36.8,20.0,30.50,SSE,162,2.0,3.0,51,0.00,,,0.00,weatherlink.com 1.10,2013-03-29 03:19:00,
2013-03-28 23:34:00,36.2,20.0,30.50,SSE,160,2.0,4.0,53,0.00,,,0.00,weatherlink.com 1.10,2013-03-29 03:34:00,
2013-03-28 23:49:00,36.5,19.0,30.50,SSE,167,3.0,3.0,50,0.00,,,0.00,weatherlink.com 1.10,2013-03-29 03:49:00,